Tracking 27188 objects as of 1-Apr-2023
HD Live streaming from Space Station
objects crossing your sky now

STARLINK-5644

Track STARLINK-5644 now!
10-day predictions
STARLINK-5644 is classified as:


NORAD ID: 55369
Int'l Code: 2023-013AQ
Perigee: 565.2 km
Apogee: 567.2 km
Inclination: 43.0 °
Period: 95.8 minutes
Semi major axis: 6937 km
RCS: Unknown
Launch date: January 26, 2023
Source: United States (US)
Launch site: AIR FORCE EASTERN TEST RANGE (AFETR)
Your satellite tracking list
Your tracking list is empty




NASA's NSSDC Master Catalog

Two Line Element Set (TLE):
1 55369U 23013AQ  23091.09497644  .00000241  00000-0  32884-4 0  9991
2 55369  43.0036  26.8695 0001423 267.3874  92.6805 15.02537106 10493
Source of the keplerian elements: AFSPC